User: anonymous
Location: Fort Wayne
(41.1310°N, 85.1290°W)
Time: 13:34:07
(UTC-04:00)
Language:

SL-08 RB Rocket - Orbit

View from above orbital plane
View from above orbital plane
View from above satellite
View from above satellite

Ground track
Ground track

The orbit data is extracted from the following two-line orbital elements,

1 26387U 00033D   14260.28107478  .00000630  00000-0  11980-3 0  6035
2 26387 098.0979 326.9545 0025562 281.6841 118.1497 14.67373680760597
Epoch (UTC): 17 September 2014 06:44:44
Eccentricity: 0.0025562
inclination: 98.0979°
perigee height: 651 km
apogee height: 687 km
right ascension of ascending node: 326.9545°
argument of perigee: 281.6841°
revolutions per day: 14.67373680
mean anomaly at epoch: 118.1497°
orbit number at epoch: 76059

The dashed part of the orbit path shows where the satellite is in the earth's shadow,  

DLR